Theta_e
309 306 304 304 304 304 304 305 304 305 305 305 305 305 305 305 305 305 305 305 305 305 305 305 305 305 305 305 307 308 308 309 309 308 309 308 308 308 308 309 309 308 307 307 307 307 307 308 309 309 309 309 310 311 311 312 312 312 319 320 319 325 324 320 317 313 314 318 315 314 314 318 319 315 315 316 316 317 316 316 317 317 317 317 318 318 318 318
306 304 305 304 305 305 305 305 305 305 305 305 306 306 306 306 306 306 306 306 306 306 305 305 305 305 305 305 307 309 309 309 309 309 309 308 308 308 308 307 307 307 306 306 306 306 307 308 309 309 309 309 310 311 312 313 312 315 320 319 322 329 320 312 311 309 311 313 311 313 314 315 317 315 315 319 317 315 317 316 315 316 316 317 317 317 318 317
308 305 305 305 305 305 305 306 306 306 306 306 306 306 306 306 307 307 307 306 306 306 305 305 305 305 305 305 307 309 309 309 309 309 308 307 307 307 307 306 306 306 306 306 306 306 306 307 308 308 308 308 310 311 312 313 312 314 316 320 329 326 312 307 308 308 309 309 309 312 314 314 315 315 315 317 317 315 317 316 314 315 316 316 317 317 318 317
307 305 305 305 305 305 306 306 306 306 307 307 307 307 307 307 307 307 307 307 307 306 306 305 305 305 305 305 307 309 308 308 309 308 308 307 306 306 306 306 306 306 306 306 306 306 307 307 308 308 308 308 308 310 312 313 313 313 316 323 325 314 309 309 308 308 309 309 310 311 313 314 314 315 315 315 318 318 316 315 315 315 315 315 316 317 317 317
305 305 305 305 306 306 306 307 307 308 308 308 308 308 308 308 307 307 307 307 307 307 306 306 305 305 305 305 307 307 307 311 310 307 307 306 306 306 306 306 306 306 306 306 307 307 307 307 307 308 308 308 308 309 311 311 313 314 312 314 312 308 310 309 306 308 308 309 310 310 312 312 312 313 314 314 319 319 315 314 315 315 315 315 315 316 316 316
305 305 305 306 306 306 307 307 308 308 308 309 309 309 309 308 307 307 307 307 307 307 306 306 305 305 305 305 306 307 308 311 309 306 307 306 306 306 306 306 306 306 306 306 307 307 307 307 307 308 307 308 308 308 309 309 311 314 311 307 307 308 309 307 306 307 307 308 310 310 311 310 310 311 311 311 315 314 312 313 314 315 315 314 314 315 315 316
305 305 306 306 306 306 307 307 307 308 308 308 308 308 308 308 307 307 307 307 306 306 306 306 305 305 305 305 306 308 309 309 307 306 306 306 306 306 306 306 306 306 307 306 307 307 307 307 307 307 307 308 308 308 309 309 309 314 312 306 307 307 307 307 306 306 306 307 308 308 309 308 309 310 309 308 310 310 309 310 312 314 314 314 314 314 314 315
305 306 306 306 306 306 306 307 307 307 308 308 309 308 308 307 307 307 307 307 306 306 306 305 306 305 306 307 308 310 309 307 306 306 306 306 307 306 306 306 306 307 307 307 306 307 307 307 307 306 307 307 308 309 309 309 310 313 311 307 307 307 307 307 306 306 306 306 306 307 306 306 308 307 306 306 308 308 307 308 310 312 313 313 313 313 314 313
305 306 306 306 306 306 306 307 307 308 308 309 309 308 307 307 307 308 307 307 306 306 306 306 307 307 308 309 311 311 308 306 306 306 306 307 306 306 306 305 306 307 307 307 307 307 307 307 307 307 307 306 308 310 309 310 311 310 308 307 307 307 306 306 306 306 306 306 306 306 306 306 305 305 306 306 306 306 306 307 309 311 312 313 312 312 312 312
306 306 307 307 307 307 307 307 308 309 308 308 308 307 308 308 308 308 307 306 306 306 307 308 309 309 308 308 309 309 306 304 305 306 306 307 306 306 306 305 306 306 307 307 306 306 306 306 307 306 306 307 308 309 308 310 310 308 307 307 306 306 306 306 306 306 305 305 305 305 306 305 304 305 307 306 305 305 305 306 308 310 311 311 312 311 311 311
307 307 307 307 307 307 307 308 308 308 307 307 307 307 308 307 307 307 306 306 307 308 309 308 309 308 307 307 307 306 305 304 304 305 306 307 307 306 306 306 306 306 307 306 305 305 305 306 306 306 307 308 309 309 308 308 308 307 307 307 306 305 305 305 305 305 305 305 304 304 304 303 303 305 307 305 304 304 303 305 306 308 309 310 310 310 310 310
306 306 306 306 306 306 307 307 307 307 307 306 307 308 308 307 307 306 306 307 308 308 308 309 309 309 309 307 306 305 305 305 304 304 306 307 307 307 307 307 307 307 307 307 306 305 306 306 306 308 308 308 310 309 308 307 307 307 306 308 310 310 308 305 304 304 304 305 304 303 305 308 308 306 307 304 304 304 302 303 304 305 307 308 309 309 309 308
305 305 305 305 305 306 307 307 307 307 307 306 308 308 307 307 306 306 307 308 308 308 308 308 309 309 309 307 305 305 305 304 304 304 305 307 307 307 307 307 308 307 307 307 307 307 307 308 307 308 307 308 310 308 308 307 306 308 307 308 311 315 314 305 303 304 303 304 304 304 308 313 313 308 305 304 303 303 302 302 302 303 304 305 307 308 308 308
305 305 305 305 306 306 307 307 307 307 306 307 308 308 307 307 307 307 308 308 308 307 308 308 309 310 308 307 306 305 305 304 304 304 305 305 306 307 307 307 308 307 307 307 307 307 307 308 308 309 307 308 308 307 311 310 308 309 308 311 311 312 318 311 303 304 305 304 304 305 307 308 309 306 304 304 303 303 302 302 302 302 303 304 305 306 307 307
306 306 306 306 306 307 307 307 307 307 306 307 308 307 307 307 307 307 307 307 307 307 307 308 310 310 308 306 305 305 304 304 303 304 304 304 305 307 307 307 307 307 308 307 308 308 307 308 307 308 307 307 308 312 318 317 314 312 309 316 315 309 317 313 303 303 305 305 303 304 308 308 306 304 304 303 303 302 302 303 303 302 303 303 304 305 306 306
306 306 306 306 307 307 307 307 307 306 306 308 308 307 307 307 307 307 307 307 308 308 308 309 310 309 308 306 305 305 304 303 304 303 303 305 305 306 306 307 307 307 308 308 308 307 307 308 307 306 306 306 310 315 319 320 321 316 309 313 314 309 311 310 305 303 303 304 304 304 306 308 305 302 303 302 302 302 301 302 303 302 303 303 303 304 305 305
306 306 305 306 306 306 306 306 306 306 307 308 308 308 307 307 307 307 307 307 308 308 308 309 308 309 309 306 305 304 303 303 304 303 303 305 305 305 306 306 307 307 308 308 308 307 307 307 307 307 305 303 308 313 312 316 322 318 311 311 310 308 307 308 308 304 302 304 306 306 305 305 305 302 301 301 301 301 300 301 302 302 303 303 303 303 304 304
306 306 306 305 305 305 305 305 305 306 307 308 308 308 308 307 307 307 307 307 307 308 308 307 308 311 310 306 304 303 303 303 304 304 303 304 306 305 306 307 307 307 308 308 307 308 307 306 307 310 308 304 308 313 307 308 314 312 310 310 309 308 306 307 309 305 304 306 305 305 305 304 303 301 299 299 300 300 300 300 301 302 302 302 302 302 303 303
307 306 306 305 305 304 305 305 306 307 308 308 307 307 307 306 306 306 307 307 306 307 307 305 306 311 309 305 304 303 303 303 304 304 302 304 306 306 306 306 307 307 307 307 307 307 306 308 311 311 309 306 307 311 308 306 310 308 307 307 307 308 306 305 308 306 303 304 305 304 304 303 301 300 299 298 299 299 300 300 300 300 300 301 301 302 303 302
307 306 305 305 305 304 305 305 306 307 307 307 307 309 309 308 308 306 305 306 305 305 305 304 303 305 305 304 303 302 303 304 303 303 302 304 305 306 307 306 306 307 306 307 308 305 306 313 314 310 309 307 305 308 308 306 308 306 306 307 307 307 306 305 306 305 300 301 306 305 303 302 299 299 298 298 299 298 297 297 298 299 299 300 300 301 302 302
306 305 305 305 304 304 305 305 306 307 307 307 309 311 310 309 309 307 305 305 305 304 304 303 302 302 303 303 303 302 303 303 303 303 303 304 306 307 307 307 309 309 305 304 305 306 310 312 310 310 309 305 305 306 305 305 305 305 305 306 307 306 307 304 302 304 301 299 303 303 302 301 299 300 299 298 299 298 297 297 297 299 299 300 300 300 301 302
305 305 305 304 304 304 304 305 306 306 308 309 309 309 308 308 308 307 307 306 304 304 303 303 303 303 303 302 303 303 303 303 302 303 304 304 306 307 306 307 311 310 306 307 309 311 313 310 308 308 304 302 306 308 307 305 305 307 306 305 307 307 307 306 303 303 302 299 302 303 301 301 300 300 299 297 298 299 299 299 299 300 300 300 300 301 301 302
305 305 305 305 305 304 304 305 306 307 308 308 306 306 307 306 307 308 308 307 306 305 304 305 304 303 303 303 303 304 302 302 302 302 304 304 305 306 305 307 312 313 310 313 316 315 311 308 307 304 301 303 307 310 310 307 307 308 306 304 308 306 303 306 305 303 301 299 301 303 301 301 302 304 305 300 298 300 301 301 301 300 300 301 301 301 301 301
305 305 305 305 305 304 304 305 306 307 307 306 306 306 307 307 309 309 308 308 307 307 306 306 305 303 303 303 303 304 303 302 302 302 303 305 305 306 305 306 313 314 309 311 315 314 307 304 302 302 304 305 305 309 309 305 306 308 306 305 306 305 301 303 304 301 301 300 300 301 303 306 308 310 310 303 298 300 300 300 302 301 301 301 301 301 301 302
305 305 305 305 305 304 304 304 306 307 306 305 305 305 306 307 309 308 309 312 311 309 308 306 305 304 303 304 303 304 304 303 302 302 303 304 305 306 305 305 309 309 307 308 310 308 304 301 301 302 307 307 305 307 305 302 304 305 306 305 303 302 301 302 303 301 302 303 301 300 304 311 312 308 306 304 304 305 300 298 301 302 302 301 301 302 302 302
305 306 306 305 305 305 304 304 305 305 305 305 305 306 306 307 309 306 310 319 319 312 309 306 306 305 303 304 303 303 304 304 302 302 303 303 304 306 307 306 304 304 306 306 305 305 303 300 301 303 305 307 306 305 303 302 302 301 303 304 302 301 301 302 302 301 303 304 301 300 303 308 310 306 304 305 307 309 305 302 300 300 302 302 302 304 303 303
305 306 305 305 305 304 304 305 304 304 305 304 304 306 305 307 309 304 310 321 318 310 308 307 305 305 305 304 303 303 303 303 302 303 303 303 304 304 307 308 305 303 304 304 305 305 304 303 302 304 306 306 306 306 305 303 302 302 302 303 304 302 302 302 300 300 302 302 302 301 302 305 309 308 305 304 307 308 308 310 304 299 302 304 303 304 304 304
306 305 305 305 305 304 306 308 306 304 306 306 304 305 306 308 307 307 316 320 311 307 307 306 305 303 305 305 303 303 303 302 303 304 303 303 303 304 305 306 306 306 302 305 308 304 302 305 304 304 305 305 306 307 305 301 300 303 301 301 303 301 301 301 300 302 301 301 306 305 301 304 310 308 305 304 306 308 310 313 309 302 302 304 304 305 304 304
305 305 305 305 305 304 305 307 307 305 306 306 303 304 307 306 305 312 320 315 308 308 307 306 305 303 304 307 304 303 303 303 302 304 305 303 303 303 304 304 305 307 302 304 311 307 302 304 303 303 302 303 307 307 304 304 301 301 300 301 303 301 302 301 300 303 302 304 309 307 300 303 309 308 305 304 305 309 313 314 309 302 301 303 303 303 304 303
305 306 305 305 306 305 304 305 305 305 306 305 303 306 306 307 314 320 317 310 308 309 307 306 304 302 305 309 306 303 303 304 303 303 304 303 302 301 302 302 303 307 307 305 309 307 302 301 300 301 301 301 304 302 300 302 300 299 303 305 304 302 301 302 302 302 304 309 311 306 302 301 305 307 305 304 305 308 310 309 305 300 300 303 302 302 303 302
305 305 305 306 305 305 305 303 304 305 305 304 305 306 305 310 322 325 312 305 308 309 307 306 304 304 307 308 305 304 305 303 301 304 305 305 306 304 303 304 304 311 317 312 309 305 302 303 301 300 300 300 301 300 299 299 299 302 305 304 303 303 302 304 306 303 305 312 310 304 302 300 303 307 306 306 306 305 304 303 304 301 300 302 302 302 301 300
305 305 305 306 305 305 305 304 304 304 304 305 306 306 311 316 319 318 310 306 309 310 306 304 303 304 307 306 304 305 306 303 301 304 306 307 309 307 303 304 304 310 316 311 308 307 306 305 302 300 301 300 301 302 302 302 303 304 304 303 305 307 304 306 309 305 306 310 304 300 300 299 301 303 303 304 304 303 301 300 301 299 298 301 301 301 301 300
305 306 305 305 305 305 305 304 303 303 305 307 305 308 320 324 314 310 311 308 306 306 304 304 305 304 304 304 304 303 303 302 302 303 303 305 310 307 303 301 300 303 306 304 304 307 310 307 302 302 303 300 300 302 302 303 302 301 301 304 308 306 302 306 307 303 304 306 300 297 299 300 302 304 304 304 301 300 299 297 298 298 299 301 301 301 300 300
305 306 305 305 305 304 304 304 303 304 306 306 308 312 315 316 310 306 308 310 307 305 305 305 306 305 303 302 303 302 302 301 303 304 304 306 309 309 307 303 300 301 305 304 301 303 307 308 305 304 303 300 299 301 301 301 301 301 300 301 305 305 302 305 307 304 304 305 301 297 300 305 308 307 306 301 298 299 298 298 299 299 300 300 299 300 300 299
305 306 305 305 305 304 305 303 303 306 305 307 316 319 313 311 310 307 309 310 308 307 307 304 305 308 308 306 304 302 300 301 302 303 305 305 305 308 307 305 302 302 305 306 302 301 303 305 303 301 299 299 301 300 298 300 301 300 299 298 303 306 304 303 306 303 300 301 301 299 302 307 307 305 302 297 298 299 297 299 301 299 300 300 299 300 299 299
306 306 305 306 305 304 304 303 305 306 306 313 321 321 319 314 308 309 310 307 306 307 307 307 306 308 309 308 307 303 299 301 302 303 303 303 304 306 306 305 303 301 302 304 303 302 304 306 302 299 298 298 299 299 298 300 300 299 298 301 302 300 300 302 303 300 297 298 302 300 302 306 304 305 306 302 303 302 298 297 298 298 299 299 299 299 299 299
306 306 306 305 305 305 304 303 306 306 307 316 320 316 317 311 304 309 309 303 304 306 307 309 306 306 307 306 307 306 301 302 303 303 303 304 304 305 306 305 300 298 299 301 302 301 304 306 302 299 301 298 296 298 297 297 299 300 300 301 299 297 300 302 301 302 302 301 302 300 302 307 305 306 308 304 303 304 300 296 294 296 298 298 298 299 298 299
306 307 306 305 306 305 304 304 306 308 310 316 317 312 310 307 303 305 305 302 304 305 307 311 307 304 307 306 305 304 301 303 305 305 305 305 303 304 307 305 299 298 297 298 302 301 301 305 302 298 300 300 296 297 300 298 296 298 298 298 297 298 304 304 300 302 303 301 303 303 301 304 306 306 306 303 301 302 300 297 296 296 297 297 298 298 298 298
307 309 306 305 305 304 304 305 305 308 310 313 317 313 307 307 303 301 303 303 303 304 306 309 306 304 305 305 305 303 301 303 304 303 304 304 302 302 304 303 300 298 297 298 302 301 299 302 303 299 297 299 297 298 304 304 298 296 297 298 298 299 303 303 300 302 303 301 303 304 301 303 307 307 303 301 301 300 298 297 297 296 296 296 297 297 297 297
306 309 306 304 305 304 304 306 306 312 314 310 313 313 307 307 304 300 302 303 302 303 305 306 305 304 304 303 304 302 302 304 304 302 303 303 303 303 302 301 301 299 297 297 299 300 298 299 303 302 298 299 300 301 304 307 305 302 301 300 299 298 300 300 298 300 303 302 302 302 301 304 307 305 302 300 300 297 296 297 296 295 296 296 296 296 296 296
307 310 307 304 305 304 305 306 305 311 316 309 308 310 307 307 304 300 301 302 301 301 303 306 306 306 306 304 302 302 303 306 305 304 305 303 303 303 301 300 300 298 297 298 299 301 300 299 303 305 301 301 303 301 300 303 306 305 305 304 303 301 301 301 299 300 300 300 303 302 299 302 305 304 301 299 298 295 295 295 295 295 295 295 295 296 296 295
308 310 307 303 304 304 307 308 303 306 314 310 306 307 306 305 303 301 300 301 302 300 300 304 306 306 307 305 303 304 304 306 306 305 306 305 304 303 301 299 299 298 300 302 301 299 299 300 302 302 300 301 301 296 294 297 300 301 301 302 302 302 303 302 303 304 301 299 301 301 298 300 302 301 298 297 296 295 295 295 294 294 295 295 295 295 295 295
308 307 304 303 305 305 307 307 304 309 313 307 303 304 304 304 303 302 301 300 302 301 301 304 305 303 303 303 304 304 302 305 308 307 308 308 304 301 300 299 298 298 299 302 300 298 299 300 301 302 302 300 299 295 293 295 297 298 299 299 300 302 303 302 302 303 302 300 299 299 299 300 299 296 294 295 296 295 295 295 294 295 295 295 295 295 295 294
306 304 304 304 305 306 308 309 311 315 311 303 302 303 302 303 303 303 304 303 302 302 304 306 304 302 302 302 302 303 302 304 306 305 305 306 303 300 299 299 298 297 298 301 301 298 300 303 302 302 304 302 302 302 300 299 298 298 300 300 300 301 301 300 299 298 300 301 300 299 300 300 299 296 295 296 296 295 294 294 294 294 294 294 294 294 294 293
304 304 304 304 305 305 307 310 315 320 313 306 306 306 303 303 303 303 305 304 302 301 302 303 302 302 303 301 302 304 303 302 303 303 302 302 302 298 298 299 298 297 298 299 298 297 300 303 301 300 302 301 302 304 303 302 300 299 301 300 298 299 299 299 299 298 299 300 300 300 300 299 299 299 298 297 296 295 294 294 294 294 294 294 293 293 292 292
305 307 306 304 305 305 305 305 308 315 315 310 307 306 305 306 304 302 303 304 303 301 300 301 300 302 302 301 302 306 305 302 301 302 302 305 305 299 297 299 298 297 298 297 296 297 300 301 299 300 302 302 301 302 300 300 299 299 300 299 299 299 299 299 299 299 299 299 298 300 300 298 298 299 298 296 295 295 294 293 293 293 293 293 293 292 292 292
304 307 308 305 304 304 305 304 303 306 308 307 304 305 307 308 304 301 302 303 302 301 300 300 300 302 303 303 304 306 305 303 302 302 303 306 306 299 295 297 298 297 297 295 296 298 300 300 299 300 300 300 300 299 298 298 298 297 298 299 298 298 298 298 298 298 299 299 299 299 299 298 298 298 297 295 294 294 293 292 292 292 292 292 292 292 292 291
304 306 306 305 305 306 306 305 304 303 303 303 303 304 306 309 306 304 304 302 300 301 301 302 303 303 306 307 306 306 305 304 304 305 305 304 302 299 297 296 296 296 296 295 295 297 300 302 300 298 299 299 298 297 297 297 297 297 298 298 298 297 297 298 298 298 298 298 298 298 298 298 298 297 295 293 293 293 292 292 292 292 292 292 291 291 291 290
305 305 303 303 306 306 305 305 304 304 304 303 305 305 306 311 311 307 304 301 302 302 300 304 309 306 305 306 305 305 307 306 304 305 306 305 302 301 302 300 296 294 295 296 295 295 298 303 300 298 299 298 297 297 297 296 297 297 297 297 297 297 297 297 297 296 296 297 297 297 297 297 296 295 293 292 293 292 292 292 292 292 292 291 291 291 290 290
306 306 303 302 303 302 303 305 304 306 305 302 305 306 305 311 315 308 303 303 308 306 299 304 312 307 302 303 304 305 308 308 304 302 303 305 302 302 305 304 301 296 294 296 296 294 296 301 300 298 299 299 298 298 296 296 298 298 297 297 296 296 297 296 296 296 296 296 297 296 296 297 295 293 292 292 293 292 292 291 291 291 291 291 290 290 289 289
305 306 303 303 306 303 302 304 303 306 307 303 305 307 306 311 313 308 305 304 306 307 302 304 310 306 302 302 304 305 304 304 303 301 301 303 302 302 301 300 301 301 297 296 297 296 296 299 300 300 301 300 298 298 298 297 297 298 297 298 298 299 299 297 296 297 297 296 297 296 296 296 294 292 292 292 292 291 291 291 291 291 291 290 290 289 289 289
304 305 304 305 307 304 301 302 301 305 309 305 303 305 305 306 304 303 305 305 302 303 303 302 302 304 306 306 306 305 302 300 301 300 300 301 301 300 299 297 299 302 300 297 297 297 296 299 301 298 300 302 299 297 297 297 299 301 299 297 298 298 298 296 295 296 296 295 295 295 295 293 292 291 292 291 291 291 291 291 291 291 290 289 289 288 288 288
Wind_Speed
9 7 5 3 4 4 4 3 2 2 2 3 2 2 3 3 3 4 4 5 5 5 5 5 5 5 4 4 7 9 6 4 1 1 4 7 9 12 13 14 14 14 13 11 11 9 5 4 3 4 4 3 3 3 4 7 8 6 2 2 2 2 3 4 4 2 2 2 3 4 4 2 3 4 6 5 5 9 10 11 10 11 13 9 9 9 11 21
10 7 6 5 5 5 4 4 3 3 3 2 2 2 2 2 3 3 4 4 5 5 5 5 5 6 5 5 8 9 6 1 1 2 5 9 11 13 15 15 15 14 13 11 10 9 5 4 3 4 5 4 4 3 3 5 9 6 2 2 3 4 3 2 2 2 1 1 5 5 5 4 5 6 9 4 3 8 7 8 10 10 14 12 11 10 14 22
9 7 7 6 6 6 6 5 5 4 3 3 3 3 3 3 2 2 2 3 3 4 4 4 4 5 6 7 9 9 5 2 2 3 6 10 13 15 15 15 14 12 11 9 7 6 4 4 3 2 3 4 5 5 4 3 6 5 3 2 5 5 3 1 1 2 1 3 5 4 5 5 6 8 10 5 4 7 7 10 11 13 17 14 12 12 16 25
8 5 5 6 6 7 7 6 5 4 4 4 4 3 3 3 2 2 2 1 1 2 3 3 4 4 6 8 10 9 6 3 3 4 9 12 13 13 13 13 12 10 8 6 4 2 2 3 2 2 2 3 4 4 4 5 6 3 4 4 5 6 4 1 1 2 2 3 5 4 3 3 6 9 10 7 4 4 12 18 17 17 18 16 15 14 18 27
9 5 4 6 6 7 6 6 5 4 4 4 4 3 2 2 2 2 1 0 0 1 2 3 4 4 6 8 9 9 4 2 3 6 11 12 12 11 11 11 10 8 5 3 2 1 1 1 1 1 1 2 2 1 4 7 7 2 2 1 2 5 3 2 2 2 2 2 3 3 3 4 5 7 11 10 7 7 12 17 19 19 17 15 16 15 20 28
7 5 5 5 5 5 5 5 4 4 3 3 3 2 2 2 2 1 1 1 0 1 2 3 4 4 5 6 8 6 2 1 4 9 11 11 10 10 10 8 7 5 3 1 1 1 2 2 1 1 1 2 1 2 5 6 7 4 1 2 3 2 2 2 2 2 2 2 4 4 4 5 5 6 9 13 14 14 12 13 15 18 15 14 15 16 20 27
6 5 4 4 4 3 3 3 2 2 2 2 2 2 3 3 3 2 1 1 0 1 2 3 4 4 5 5 6 3 3 1 6 11 10 9 9 10 8 6 4 2 1 0 1 1 2 4 3 2 1 2 2 2 5 6 2 3 1 1 3 2 2 2 2 1 1 1 3 3 4 5 5 5 6 13 19 17 15 13 13 14 14 14 16 17 19 24
5 4 3 2 2 1 1 1 1 1 1 2 2 3 3 3 2 1 1 1 2 3 4 4 5 5 6 6 5 3 2 5 10 11 9 7 8 9 7 5 3 1 2 1 2 3 2 5 6 4 1 1 3 4 5 6 3 3 1 2 2 1 1 1 1 1 2 2 1 2 4 5 6 5 6 15 18 15 14 13 12 12 13 15 17 18 19 23
3 2 1 1 1 0 0 0 1 1 1 2 3 3 3 2 1 1 2 4 4 5 6 7 8 7 7 5 3 3 4 9 10 9 8 6 7 8 6 6 3 1 2 3 5 4 2 4 5 5 1 0 4 4 5 5 2 1 4 5 3 2 1 1 2 2 3 3 3 2 4 5 5 4 9 15 15 13 13 12 12 12 14 17 17 18 19 23
2 2 2 2 1 1 0 1 1 1 2 2 2 3 2 3 3 3 5 6 7 8 9 10 9 7 6 3 3 3 5 8 8 8 7 5 6 6 6 6 4 2 4 6 6 5 4 3 4 5 1 1 4 4 4 2 1 2 5 4 2 1 2 2 3 3 3 3 3 2 5 7 4 1 6 11 9 10 12 12 13 14 16 17 18 18 19 22
2 2 2 2 2 1 1 1 0 1 2 3 3 3 3 4 5 6 7 9 11 12 11 10 8 7 5 4 6 5 6 9 9 8 6 5 4 4 5 6 6 6 7 8 8 7 5 3 3 3 1 1 3 3 3 3 1 3 5 2 3 2 2 2 2 3 3 1 3 3 6 7 2 3 8 11 8 9 12 13 16 17 18 18 19 20 19 22
2 2 2 2 2 2 1 0 1 2 3 4 4 4 4 5 7 8 9 11 12 12 10 8 6 5 3 4 9 8 9 10 9 10 7 5 3 2 4 5 7 8 8 9 8 7 5 4 4 3 1 1 1 2 2 2 1 2 2 1 5 7 3 4 3 3 3 1 5 7 6 7 2 7 10 9 8 10 12 15 18 19 20 20 21 21 21 22
2 2 2 1 2 2 1 0 1 2 3 3 4 5 6 7 9 10 10 12 12 11 8 6 5 4 3 4 8 9 10 10 9 8 6 5 3 2 2 4 5 6 7 8 7 6 5 5 5 6 6 3 0 2 2 2 2 1 1 1 4 7 4 6 5 3 4 2 5 6 4 7 6 12 11 8 10 11 14 17 19 20 21 22 23 23 24 24
1 1 1 2 2 2 2 1 0 1 2 3 4 6 8 10 13 12 12 12 10 7 5 5 4 4 3 4 5 9 10 9 8 6 4 5 4 2 2 3 4 4 5 7 7 5 5 5 4 5 7 6 2 2 3 4 4 2 2 2 3 3 4 7 4 3 4 3 3 5 2 8 8 13 12 9 11 13 16 19 20 21 22 23 25 26 27 26
2 2 2 3 3 3 3 2 1 1 2 3 5 8 10 12 13 12 11 10 7 4 4 5 3 2 3 4 4 8 10 8 7 8 8 6 3 2 2 2 2 2 4 5 5 5 5 5 5 6 4 5 5 3 3 4 4 3 2 3 3 1 4 8 5 2 1 3 2 4 3 9 8 12 12 9 12 15 19 21 21 23 23 24 26 27 29 28
2 2 2 3 3 2 3 3 2 1 2 5 7 9 10 11 10 9 8 7 5 3 3 4 1 1 3 3 3 6 9 8 10 11 11 7 3 2 3 3 1 3 3 3 4 4 5 4 8 10 7 5 5 4 4 4 4 4 2 2 4 2 3 6 4 2 2 2 3 2 3 8 8 10 11 9 13 17 21 24 24 25 26 26 27 28 29 29
2 2 1 1 2 2 3 3 3 3 5 7 8 9 9 8 7 6 5 6 5 4 3 3 2 0 2 3 4 7 9 8 10 11 11 7 3 4 4 4 3 1 2 2 4 4 4 3 5 6 8 6 3 4 4 4 3 4 3 1 3 2 3 5 5 4 5 2 3 2 3 11 14 15 16 14 16 20 23 26 27 27 28 29 29 30 30 29
3 2 1 1 1 2 3 4 4 5 7 9 9 9 8 6 5 4 4 5 5 3 3 2 1 2 1 6 7 9 9 7 10 12 10 5 3 4 5 5 5 4 3 3 4 4 3 3 3 2 5 6 4 5 3 2 2 2 2 2 4 3 3 4 5 4 6 4 4 4 6 14 18 19 21 18 16 21 27 28 29 29 30 29 30 32 31 31
4 3 2 1 2 2 3 4 5 8 10 10 10 9 7 6 6 5 4 5 3 3 2 5 5 2 2 7 8 8 7 4 9 12 8 3 3 3 4 3 5 6 5 3 3 5 3 3 5 3 3 3 2 4 4 4 5 4 3 2 4 5 5 5 6 4 5 5 6 5 7 13 17 19 20 18 15 21 28 28 29 29 29 29 30 33 33 34
5 3 2 1 2 3 4 5 7 10 10 10 10 8 6 5 4 6 7 9 10 9 5 6 8 3 2 5 6 7 5 2 8 12 7 3 1 1 3 2 2 7 6 1 3 4 5 4 3 1 3 3 4 4 4 3 5 4 2 2 4 5 6 5 5 5 6 5 6 4 7 13 17 18 19 20 15 16 23 24 25 29 29 30 31 33 35 35
5 3 2 1 2 3 5 6 8 11 11 10 7 4 3 2 1 3 9 12 11 9 8 8 9 6 3 3 6 9 6 2 7 11 6 3 2 1 4 4 3 5 6 3 1 2 4 5 1 5 7 5 4 2 2 0 2 1 1 2 3 3 7 5 3 4 8 6 5 5 9 16 18 17 18 17 10 13 19 20 23 27 29 30 32 33 34 34
5 4 2 1 2 4 5 6 10 12 12 9 4 2 2 3 5 6 7 9 8 8 7 7 9 9 5 2 4 8 8 5 8 11 8 6 5 3 4 7 5 2 6 4 3 4 5 2 5 6 5 1 2 4 5 3 3 2 1 0 3 3 5 6 3 5 6 4 5 7 9 16 18 15 15 14 10 14 18 18 22 25 26 28 30 31 32 33
5 4 2 1 2 4 5 7 11 14 13 8 3 4 6 8 9 8 7 7 5 5 4 4 8 10 8 5 3 6 10 8 9 13 13 9 8 8 7 6 4 2 6 5 4 2 3 2 6 3 1 3 4 5 6 5 4 2 1 0 4 3 2 4 4 7 7 3 4 7 8 12 13 10 10 9 7 12 15 15 20 22 24 26 26 27 29 30
5 4 3 1 1 4 6 8 12 15 12 6 3 5 7 8 9 7 6 6 3 2 3 3 6 8 9 9 7 5 8 9 9 12 14 11 7 6 5 4 4 4 4 3 6 5 1 4 2 2 4 4 2 5 6 4 4 3 2 3 3 3 1 3 4 8 8 2 2 5 7 7 6 7 8 7 5 10 13 13 17 19 21 24 24 26 27 28
6 4 3 1 1 4 6 8 12 15 11 5 3 4 5 6 6 4 3 4 2 2 2 3 4 6 6 10 9 2 4 8 10 11 12 12 8 3 3 3 4 2 2 0 6 5 0 2 1 3 5 5 3 2 2 3 3 5 4 6 5 3 2 2 6 7 6 4 2 5 5 6 7 7 8 6 7 10 10 10 16 19 18 20 23 25 25 25
7 5 3 1 2 5 8 9 11 13 11 7 7 5 4 7 5 2 1 4 3 3 2 2 3 6 6 10 10 1 1 5 8 11 11 10 8 4 2 3 4 2 4 2 2 1 1 1 2 2 3 5 4 2 2 4 3 4 4 4 5 4 1 2 4 4 2 4 4 5 3 4 8 9 7 4 7 11 11 8 14 18 17 18 21 22 23 23
8 5 2 1 3 5 7 7 9 11 8 7 9 8 7 8 3 2 2 4 4 2 2 2 2 5 6 9 10 2 1 4 4 8 11 9 8 5 2 1 3 2 2 2 2 1 1 2 3 3 4 4 2 2 4 5 4 3 3 4 4 1 2 1 3 1 2 4 5 3 4 2 6 8 3 4 8 10 11 9 11 14 15 17 20 21 22 22
8 5 2 1 2 5 6 5 6 9 6 6 9 9 9 8 2 2 4 4 2 1 2 2 0 5 5 5 9 6 2 5 2 5 9 7 7 6 3 1 3 2 0 4 1 3 1 0 2 2 3 1 3 4 5 6 2 5 4 4 2 3 3 4 4 2 1 2 5 3 2 1 6 7 2 5 6 8 9 10 9 12 14 15 18 19 21 21
7 6 2 1 1 3 5 3 5 8 6 6 9 10 9 6 1 3 5 2 1 0 1 2 0 4 5 2 6 8 4 4 3 3 5 5 7 6 4 1 4 4 1 5 3 4 1 1 3 4 3 3 5 5 5 7 2 4 2 1 2 2 1 3 4 2 2 3 4 5 1 1 5 7 5 4 3 5 8 8 8 13 18 17 17 18 17 15
6 6 3 0 1 2 4 4 5 7 6 7 10 11 9 4 1 5 3 1 0 0 1 2 2 4 7 3 4 7 4 3 5 5 4 4 6 6 5 2 3 4 1 3 1 4 1 0 1 3 3 4 3 3 4 5 3 3 4 3 4 5 4 3 2 3 4 2 5 6 2 1 3 7 5 3 2 4 5 7 9 15 20 19 16 14 10 9
6 6 4 1 1 3 4 4 5 8 7 9 12 12 8 2 3 6 1 2 0 1 1 2 2 3 6 3 2 6 4 4 7 6 4 3 5 7 5 2 2 4 3 5 2 4 4 1 2 2 3 2 2 1 1 1 1 3 4 3 4 4 3 3 4 4 3 3 5 4 2 2 2 6 5 5 5 4 5 8 9 12 18 19 13 8 8 10
5 5 4 2 1 3 4 4 6 9 10 12 14 11 6 3 3 1 1 2 1 2 0 1 2 2 4 2 1 4 3 3 5 5 3 2 3 4 3 1 1 4 4 3 3 5 3 3 3 2 2 3 3 2 4 4 4 4 3 4 4 4 3 2 3 2 2 4 3 2 2 1 5 9 10 10 10 8 7 9 10 13 18 17 9 7 10 11
5 4 3 1 1 3 4 5 8 11 13 14 13 6 5 4 0 3 1 2 0 1 0 0 2 2 2 2 2 3 1 1 3 3 1 1 3 2 2 1 2 1 2 2 2 5 4 4 3 1 2 4 5 2 2 2 2 2 1 3 2 2 3 3 4 3 4 4 3 2 2 3 5 7 9 10 9 10 11 13 14 13 13 11 8 8 10 10
4 4 2 1 2 4 5 6 10 14 15 14 9 4 5 2 3 2 1 3 1 2 1 1 2 3 2 1 1 2 1 1 2 3 2 2 3 1 2 3 1 1 2 2 1 1 1 4 3 2 1 3 4 3 3 2 1 2 2 4 3 3 2 4 4 3 5 4 3 3 1 3 3 4 5 5 7 10 13 16 14 10 8 8 9 10 11 12
3 4 3 1 3 4 5 8 13 16 16 12 5 5 3 3 3 2 2 4 1 1 1 1 2 3 3 2 2 1 1 1 2 3 2 1 1 2 2 2 1 2 3 2 2 1 2 4 5 1 1 4 3 2 4 4 1 2 2 3 1 3 4 2 3 4 2 4 3 3 3 5 5 6 6 4 7 11 18 24 21 13 9 11 14 15 15 18
2 4 3 2 3 4 6 11 16 17 14 8 5 3 4 4 2 3 3 1 2 2 1 1 2 3 2 3 3 2 1 1 2 2 1 1 3 3 3 3 1 2 3 2 1 1 1 5 4 2 1 2 1 1 1 1 1 0 2 1 4 4 5 2 3 2 3 2 4 2 3 5 4 6 8 7 8 10 14 19 20 18 18 21 23 22 21 24
1 3 3 2 3 5 8 14 18 16 10 5 4 2 4 2 2 3 2 2 2 2 3 1 0 1 1 2 3 3 1 1 2 2 1 2 2 3 3 2 2 2 3 3 2 2 2 4 5 1 1 2 1 1 2 1 2 3 2 4 3 1 4 3 1 4 3 2 4 2 4 6 4 5 6 8 10 10 9 10 14 21 25 27 28 26 26 29
1 2 4 3 3 6 10 16 18 13 5 4 2 2 2 1 2 3 2 2 2 2 4 2 1 1 2 1 2 3 1 1 2 1 1 2 2 3 4 2 2 2 2 2 1 1 3 3 6 1 2 3 2 1 3 3 1 3 3 2 1 1 1 1 1 2 2 3 5 4 4 4 4 5 4 7 7 8 9 8 10 16 21 23 26 28 28 29
1 1 3 3 3 7 11 17 15 7 2 3 2 2 1 1 2 3 3 2 2 2 2 3 1 1 3 3 2 3 1 2 1 1 1 1 2 3 4 3 3 2 2 2 2 2 2 1 4 3 1 2 3 1 2 2 2 2 1 2 1 3 3 2 1 2 2 2 4 5 6 5 6 6 1 5 6 5 7 7 7 11 17 21 24 26 28 28
2 2 2 3 4 7 13 16 10 3 3 2 4 2 0 1 2 4 4 2 2 2 1 3 2 1 3 3 2 1 1 2 3 1 2 2 2 3 3 4 4 3 1 1 1 1 2 2 4 5 3 1 1 3 5 5 2 2 0 2 1 1 1 1 1 2 4 2 2 3 7 6 4 5 3 5 5 2 3 6 8 13 18 22 25 27 29 31
2 2 2 2 6 9 13 11 4 2 3 1 2 1 0 2 3 4 4 3 2 2 2 3 3 3 3 2 2 2 1 1 3 2 2 3 2 2 2 4 7 6 3 1 0 1 1 3 3 4 3 2 5 4 5 6 5 5 4 4 3 3 2 0 3 2 1 3 4 2 7 9 5 3 2 3 2 4 7 9 9 14 20 23 27 30 32 33
1 1 1 4 9 12 11 6 2 2 3 2 1 1 1 2 3 3 5 3 2 2 2 1 2 3 3 2 2 3 2 1 3 3 3 4 4 3 3 5 9 9 6 2 2 3 2 3 1 5 5 6 5 2 2 4 5 4 3 3 3 3 4 3 4 4 1 2 3 2 4 9 5 3 4 4 3 5 11 12 12 17 22 25 29 31 34 34
1 2 1 6 12 11 7 1 3 3 1 1 1 2 3 3 2 3 4 4 2 1 1 1 2 2 2 2 2 3 3 3 4 4 3 3 4 3 4 7 9 8 5 1 2 2 2 2 1 5 5 4 4 4 2 2 3 2 1 2 4 3 4 5 5 3 1 4 2 1 5 8 3 3 4 4 6 9 13 17 19 20 24 28 29 31 33 31
2 2 2 7 11 9 4 2 2 1 2 1 1 1 2 2 3 4 3 4 4 3 1 1 2 2 1 2 2 3 3 2 2 3 3 3 3 2 3 7 9 6 3 2 2 3 2 1 1 3 7 7 6 6 6 4 0 2 3 2 3 3 4 2 2 3 1 6 4 3 7 8 2 3 3 7 13 14 17 22 22 20 23 26 28 31 29 23
3 2 1 6 10 7 2 2 4 3 2 1 1 2 2 1 4 6 4 4 5 4 2 1 2 2 2 2 2 1 3 2 2 2 1 2 3 2 3 6 7 5 3 3 4 5 3 2 2 1 3 4 5 5 5 4 2 2 2 2 3 4 4 2 0 1 3 5 2 4 8 11 7 7 8 9 10 11 16 22 24 23 23 24 27 27 22 20
2 1 0 3 7 7 3 2 3 3 4 3 0 2 3 1 2 5 5 3 5 5 3 1 2 3 1 1 1 2 3 3 2 1 1 3 3 1 3 4 4 4 3 4 5 4 1 1 3 6 7 6 8 8 2 1 3 6 7 6 5 5 5 3 2 3 5 4 5 9 12 12 13 11 10 10 10 9 10 16 22 23 24 27 27 22 19 23
2 2 1 1 3 5 3 4 4 3 3 5 2 1 4 2 1 2 5 4 4 6 4 1 3 3 3 3 3 3 3 1 1 2 3 5 3 1 1 3 3 3 4 5 4 3 2 2 5 7 9 10 11 10 4 2 6 10 11 12 10 5 5 5 6 8 4 1 8 15 12 10 12 10 9 10 11 9 10 16 21 21 24 28 25 20 22 28
1 2 3 2 2 2 2 4 5 4 3 4 2 1 3 3 1 3 5 3 3 6 5 2 4 7 7 6 4 2 2 1 2 4 3 2 2 1 1 1 2 3 4 4 3 4 3 3 5 4 7 9 10 11 9 6 7 9 10 13 13 7 7 9 12 12 6 5 12 15 13 13 13 9 8 9 11 12 15 20 21 22 27 28 22 21 26 30
1 1 3 4 4 3 3 3 4 5 4 2 1 2 4 5 5 5 3 2 1 6 6 3 7 9 9 6 5 3 4 3 3 5 3 2 2 2 1 2 2 2 2 3 1 3 3 3 4 2 5 8 9 11 10 6 6 7 10 13 12 11 10 11 13 11 8 11 15 14 17 16 9 6 8 13 17 18 19 21 22 26 30 26 21 23 27 29
3 2 3 4 3 2 3 3 4 5 2 1 2 3 4 7 7 5 3 6 3 3 6 6 8 7 8 7 6 5 8 7 3 4 5 4 2 3 3 3 3 2 1 2 0 1 3 2 1 2 3 8 6 4 4 4 6 9 13 13 9 10 10 7 7 7 5 9 12 11 13 11 5 9 14 18 21 20 20 21 24 28 27 20 19 23 26 28
7 5 3 3 2 2 3 3 4 4 1 2 4 4 3 6 8 5 4 9 10 6 8 10 6 3 4 6 8 11 15 11 6 6 5 5 5 5 4 4 7 5 2 2 1 2 3 2 2 5 3 6 2 3 4 5 7 9 12 11 7 6 5 3 3 4 4 7 9 7 6 5 6 11 16 19 20 20 20 22 26 29 25 18 18 22 26 29
10 8 6 3 1 2 4 3 3 3 2 4 5 5 4 5 7 7 2 7 10 8 8 11 7 4 3 6 10 15 18 14 11 10 8 9 10 7 5 6 9 8 5 4 2 2 4 2 1 3 2 6 3 5 7 6 6 6 5 5 4 4 2 2 1 3 6 6 5 4 4 5 7 10 13 14 17 20 21 24 29 29 22 17 20 26 29 30
Wind_Direction
132 133 123 118 129 127 124 136 156 169 178 187 197 202 201 206 209 210 207 204 208 213 212 208 207 198 183 165 155 152 165 174 171 325 350 342 337 333 329 327 327 327 322 317 314 315 303 255 223 200 206 226 240 243 216 216 217 210 147 125 233 208 211 207 187 216 191 250 294 228 216 138 151 170 156 144 158 169 174 197 206 206 219 227 212 199 190 193
126 125 130 126 122 122 120 130 140 146 158 167 170 167 163 170 180 182 181 182 184 187 189 191 195 191 178 163 161 163 172 177 306 305 336 339 336 333 329 326 326 327 324 321 318 320 306 250 230 213 228 240 248 246 230 218 203 195 123 136 231 207 207 204 186 251 129 292 285 238 228 219 216 193 171 172 180 171 173 207 215 218 224 223 212 202 192 191
122 118 122 118 107 105 104 109 111 113 121 122 115 111 106 109 115 121 140 152 158 159 161 168 173 178 169 161 167 171 183 252 300 312 334 338 337 333 329 328 327 328 326 327 326 327 307 268 253 221 238 243 248 248 242 209 198 208 155 166 248 206 177 338 327 326 1 312 294 238 226 216 201 183 178 192 187 188 208 211 212 222 225 218 208 200 190 190
140 135 109 98 89 87 89 91 93 96 96 90 83 76 72 63 53 45 56 90 130 148 152 149 147 156 157 161 170 179 196 263 308 334 338 334 333 332 333 332 328 328 327 333 345 346 300 274 237 231 264 248 250 250 237 209 207 211 162 197 234 177 149 210 228 337 328 312 289 235 211 184 175 184 190 177 154 229 236 226 226 232 232 218 208 201 190 191
153 151 108 92 87 84 86 86 86 86 79 68 59 53 48 33 19 11 3 3 162 157 154 138 134 144 155 166 177 187 204 304 315 331 333 327 331 336 339 336 329 327 329 341 27 41 286 271 197 232 246 251 255 232 254 230 212 193 146 205 175 161 163 193 192 305 293 277 254 204 185 205 188 197 203 187 186 236 244 240 239 239 240 227 216 207 194 193
142 130 105 95 86 82 80 76 71 66 56 45 37 23 8 356 346 334 312 281 202 163 145 129 131 144 158 170 179 186 180 115 323 333 329 324 336 342 340 339 331 324 332 342 103 68 354 359 335 279 249 283 276 205 292 286 231 218 301 38 72 134 163 168 196 258 274 220 200 186 213 224 200 221 223 212 222 240 255 257 244 240 241 231 221 214 202 197
125 113 104 96 83 77 67 59 49 39 29 20 11 348 345 337 333 332 312 288 186 136 122 123 125 135 145 150 160 158 117 102 333 335 328 329 345 341 338 347 342 319 323 209 175 63 16 28 32 343 4 3 351 267 325 345 219 187 259 336 62 60 119 150 215 232 287 215 186 190 226 237 217 230 240 234 240 248 257 258 246 242 234 222 217 215 212 205
118 116 114 110 96 75 47 33 25 23 12 5 354 342 339 331 332 334 292 156 136 122 119 122 116 117 121 119 127 126 66 345 332 333 328 339 353 342 343 360 1 319 320 352 26 17 10 41 48 23 50 69 356 323 352 24 47 92 141 207 153 131 136 148 231 297 331 16 42 237 245 254 237 246 265 258 258 254 253 254 247 237 222 215 216 216 213 209
135 149 167 176 191 31 4 350 73 55 17 357 342 339 339 344 13 62 108 119 117 119 121 117 114 112 112 109 109 94 8 341 336 334 329 345 1 352 2 15 11 310 354 23 8 356 2 44 42 18 18 57 10 353 358 20 359 111 161 184 185 206 201 223 260 333 343 0 6 289 281 281 256 277 275 266 266 252 245 243 237 228 218 215 217 219 216 211
171 193 209 214 220 192 177 133 107 63 8 346 344 359 14 37 66 100 111 117 119 123 123 120 121 111 100 103 107 75 1 355 351 341 338 357 9 4 22 33 40 23 20 29 14 13 33 37 18 4 358 14 24 10 3 49 176 174 160 164 148 211 232 257 269 333 340 328 359 309 281 280 249 225 265 269 268 241 234 228 226 224 223 223 220 223 222 216
211 234 233 233 233 219 204 162 73 23 14 9 18 32 48 65 88 111 115 121 125 125 122 120 118 102 90 83 92 76 10 9 1 352 355 2 6 4 29 53 64 50 37 36 37 44 48 35 10 359 352 20 10 2 31 77 162 172 156 152 11 352 268 283 276 311 336 321 345 323 278 281 225 177 250 268 269 242 232 226 224 224 225 228 226 225 225 222
239 251 250 250 241 231 229 272 6 16 18 21 41 55 68 87 105 114 120 128 130 126 117 108 99 85 80 64 67 52 15 9 0 358 352 343 0 9 36 58 62 58 50 45 51 57 56 45 34 33 31 12 353 23 40 36 13 181 139 320 332 359 351 339 345 313 333 314 336 345 300 294 233 220 250 269 264 240 233 229 226 226 228 229 229 227 227 227
232 243 241 232 220 217 215 273 5 14 19 38 67 77 91 106 112 116 123 130 130 125 113 101 91 56 38 57 50 31 11 5 358 352 332 323 344 11 56 61 57 63 57 51 59 65 58 40 40 50 45 41 88 27 336 347 29 256 25 70 335 1 347 334 359 332 336 325 343 12 311 285 257 248 259 270 255 232 228 232 230 230 230 229 228 229 230 230
201 203 198 190 191 197 189 167 122 17 25 68 87 96 109 113 115 116 122 129 130 126 117 109 96 46 50 77 41 18 10 2 353 344 328 324 328 349 68 66 54 62 64 60 61 62 43 22 31 48 45 40 21 2 350 0 32 329 331 38 16 3 292 306 346 348 348 336 9 52 265 269 269 269 274 266 246 230 231 238 238 237 234 232 230 229 232 233
158 167 170 173 182 182 165 154 144 17 50 95 106 114 116 117 117 117 121 128 130 132 139 136 109 42 77 77 29 8 359 357 5 5 0 348 332 354 42 37 55 102 90 72 62 52 19 14 55 57 38 27 24 32 11 359 11 20 4 325 345 29 278 305 338 43 17 303 10 83 251 277 271 264 272 263 242 232 237 243 243 242 240 238 234 232 234 236
145 154 162 170 185 183 167 167 164 134 115 115 122 128 128 127 123 119 125 128 133 146 169 176 192 55 89 42 357 352 347 353 11 12 3 357 4 23 14 16 62 134 100 65 50 38 6 28 76 61 43 31 38 64 38 9 353 9 58 276 304 333 312 316 336 40 59 322 328 90 242 283 271 256 270 267 249 240 238 244 245 245 245 242 240 237 237 238
84 92 120 154 195 199 185 176 165 148 134 127 126 131 134 133 127 125 131 130 135 136 134 185 241 194 71 4 345 346 343 343 355 3 4 3 33 38 30 43 57 70 71 66 43 38 25 62 111 65 44 43 40 71 43 1 320 330 19 7 285 284 311 315 314 340 22 23 302 334 243 268 273 275 281 276 263 249 239 244 248 248 248 245 243 241 240 242
44 39 62 113 171 191 178 170 159 141 136 132 125 126 126 125 129 137 152 156 156 137 88 50 7 168 37 3 356 342 335 328 340 353 2 9 44 32 29 46 40 23 53 93 47 38 41 54 112 76 29 27 21 67 70 265 213 250 307 331 307 299 288 286 282 315 10 8 290 306 275 271 279 284 284 281 267 251 245 249 252 252 251 247 244 242 243 245
24 10 10 68 153 173 171 161 149 139 136 133 126 120 117 113 107 100 139 167 141 114 79 26 38 139 263 339 345 335 325 314 339 345 343 349 26 19 19 32 26 25 52 88 14 19 32 37 67 54 2 357 4 109 146 193 168 189 212 214 276 292 284 266 259 284 5 339 280 266 264 275 287 290 290 292 276 253 253 256 254 253 252 249 245 244 245 245
8 2 349 326 159 162 164 156 148 143 138 132 126 117 114 108 82 72 91 99 88 89 87 48 42 46 291 328 351 359 344 312 350 351 340 335 42 34 23 30 38 35 38 20 315 2 42 54 68 162 219 236 246 189 168 174 158 172 169 191 260 272 281 274 267 300 18 353 273 261 280 280 284 285 287 293 283 254 253 254 252 252 250 248 246 245 246 248
358 355 329 275 163 155 161 160 153 148 140 135 131 122 116 97 93 101 91 85 82 84 76 59 46 33 24 7 16 20 9 3 15 12 6 9 50 32 21 50 73 32 356 317 292 356 53 73 125 224 212 218 247 186 134 124 127 136 187 252 292 258 265 277 271 315 23 21 286 306 308 289 284 284 288 292 276 249 250 247 251 253 250 250 248 248 250 253
353 344 324 249 161 148 158 159 155 154 149 139 129 133 152 134 127 128 109 97 93 90 77 57 49 40 40 39 14 12 14 30 26 26 36 42 58 64 47 60 74 19 338 7 63 19 40 83 242 238 219 201 29 69 80 54 63 61 107 304 305 274 279 302 323 337 9 6 299 328 319 291 288 289 289 285 258 257 263 255 258 259 254 253 251 253 255 257
351 339 326 267 159 145 156 160 158 161 158 142 97 98 133 134 118 106 106 110 105 98 78 39 39 38 40 41 10 15 31 36 13 18 30 40 60 62 61 65 65 24 353 26 110 90 53 246 243 230 71 56 29 34 61 45 38 50 48 31 278 293 336 303 315 334 328 280 266 304 304 288 296 306 296 285 265 281 291 278 270 265 259 260 261 262 261 261
351 348 339 320 158 155 158 162 166 170 169 155 108 104 119 132 119 97 95 102 101 99 62 25 26 30 35 29 12 26 50 44 16 15 26 33 49 56 61 69 59 46 2 37 107 111 166 245 235 71 49 74 40 1 53 52 352 315 232 199 240 280 260 252 297 326 320 304 259 316 320 294 305 327 302 301 321 310 311 302 284 272 263 263 263 264 264 264
352 355 355 21 157 163 162 170 178 184 191 200 186 137 121 145 130 80 76 85 41 344 20 15 18 20 22 17 7 20 66 43 28 20 23 30 39 58 71 60 54 67 261 17 86 85 213 243 183 61 36 66 84 339 88 109 348 320 246 201 192 200 222 297 332 342 350 345 345 29 7 297 301 311 281 301 340 317 312 306 288 281 272 263 262 264 266 266
352 357 10 56 146 159 168 182 189 195 207 213 195 168 146 162 140 45 67 75 4 303 349 1 4 5 5 8 2 7 99 24 31 26 22 27 31 61 88 32 43 97 202 201 75 104 191 41 76 96 58 56 60 316 228 132 66 324 259 183 153 140 147 359 8 13 3 292 303 67 105 264 306 308 287 321 334 313 309 303 289 289 280 267 266 269 269 269
353 358 15 84 145 160 175 190 191 190 198 197 184 172 167 171 148 5 39 49 357 284 7 347 344 6 11 11 10 81 145 334 15 27 23 28 22 47 86 356 51 88 176 125 46 298 177 31 24 65 68 60 52 281 227 135 101 275 233 130 126 190 266 229 88 106 229 277 315 29 141 213 297 288 305 357 325 314 313 306 305 306 297 280 274 273 273 276
357 2 15 93 147 172 181 192 185 175 170 170 172 174 173 172 183 0 81 71 340 265 28 344 106 20 16 24 26 64 62 335 25 18 13 31 21 36 79 147 155 172 63 106 120 277 159 202 247 148 81 69 224 224 191 139 122 253 203 152 233 266 235 173 145 208 257 353 326 320 119 127 278 269 334 4 319 309 304 294 298 312 316 302 288 284 283 285
357 4 9 84 143 184 194 202 186 170 157 154 165 173 166 159 222 32 79 109 291 145 51 352 300 345 351 34 28 32 32 9 39 358 0 37 19 27 80 125 147 152 56 101 165 244 189 214 218 156 146 225 234 228 179 153 201 261 189 149 356 26 102 130 137 172 36 27 277 268 172 117 276 277 307 341 305 270 281 283 281 300 315 315 306 303 302 300
349 357 357 35 141 189 205 210 188 169 157 155 161 160 147 131 80 62 56 227 281 337 262 345 303 324 354 25 8 7 30 16 7 5 13 45 24 38 98 123 103 118 29 38 136 242 285 331 219 161 191 207 202 231 195 180 237 329 28 19 21 38 47 55 86 92 55 329 254 246 226 114 295 282 266 270 262 225 259 296 296 301 313 320 322 322 329 334
342 345 346 346 205 198 196 195 182 166 155 157 155 148 137 96 67 87 87 242 119 329 327 8 325 359 24 51 0 346 4 358 359 17 16 16 18 25 65 94 33 62 5 356 351 302 335 11 241 243 221 168 98 330 273 216 295 32 48 30 14 0 16 21 358 43 79 267 262 247 231 134 242 270 254 252 277 252 242 279 287 294 308 321 336 345 353 353
342 337 340 348 230 196 183 181 174 162 155 153 151 151 140 62 26 117 253 318 342 299 336 16 322 33 42 43 353 324 336 348 1 36 38 26 36 14 31 154 145 40 357 322 332 328 311 242 269 320 231 184 112 3 329 0 34 54 54 48 31 349 359 359 316 327 202 242 260 254 280 244 232 257 267 271 283 281 264 269 274 284 302 319 341 350 349 351
341 338 348 8 161 175 174 170 166 161 158 152 149 146 100 75 311 222 268 328 322 296 31 71 352 48 64 25 344 314 312 302 348 33 66 65 59 12 313 227 184 61 345 273 346 352 330 295 304 345 261 203 147 129 301 325 27 22 45 92 83 35 10 306 279 290 277 263 268 287 308 296 275 269 255 250 271 291 303 308 304 302 311 327 340 341 345 350
342 355 3 55 136 155 162 162 164 160 156 154 146 100 72 92 226 201 261 257 246 7 36 74 8 28 61 65 298 311 31 282 332 21 3 26 50 357 305 304 289 75 90 96 21 41 10 308 268 206 234 177 160 174 179 153 125 248 178 133 138 140 161 258 244 243 279 285 290 305 299 202 237 270 234 229 290 328 356 2 356 346 340 342 341 342 350 355
353 11 15 122 134 149 158 160 163 158 157 156 119 70 108 215 237 179 223 237 225 354 342 32 60 56 10 322 301 353 87 285 321 23 14 42 149 195 226 261 277 90 103 77 311 164 146 267 257 270 192 160 176 208 142 100 29 254 136 100 157 178 162 214 214 202 267 321 295 265 241 213 222 285 306 344 357 8 22 20 16 14 5 357 355 358 4 3
10 19 23 121 146 150 155 162 160 157 161 153 80 67 189 218 213 175 191 165 144 169 149 9 70 77 332 313 334 3 61 271 322 10 332 245 196 189 198 229 206 125 129 127 245 173 65 279 277 4 330 168 138 227 147 80 264 168 99 193 228 180 125 107 273 311 49 330 278 230 253 283 313 309 317 11 22 11 14 10 8 13 14 8 4 5 5 0
45 38 44 85 146 149 156 163 159 159 167 134 89 192 213 210 179 174 159 107 150 137 111 134 253 105 255 288 305 314 351 309 321 5 287 264 227 185 184 229 201 188 183 148 195 193 141 279 290 65 235 276 33 286 318 1 142 129 175 230 234 113 82 91 291 340 24 257 275 264 245 286 323 293 310 9 13 353 352 356 3 11 12 5 359 355 352 350
61 59 47 53 140 155 160 164 161 163 161 93 90 235 208 175 192 170 144 134 147 99 100 161 218 164 181 206 270 267 290 295 317 12 251 263 250 171 150 176 200 212 210 125 131 190 124 283 296 307 195 287 357 355 314 334 96 143 197 225 128 134 307 34 150 292 317 287 289 282 265 270 247 246 312 354 346 337 340 349 8 10 4 354 350 349 347 349
17 76 39 33 138 157 162 164 165 166 121 94 184 236 179 190 206 165 158 158 144 119 136 197 185 89 174 175 214 242 231 228 240 22 213 231 256 193 159 167 181 188 197 125 142 208 120 151 283 286 240 302 6 89 233 293 20 66 348 322 59 167 196 184 169 186 199 276 292 303 309 286 232 219 268 329 324 340 350 357 7 358 351 349 349 352 353 354
17 87 43 38 134 156 162 164 165 142 85 130 194 193 169 214 194 170 165 172 171 156 205 205 157 147 206 196 217 232 174 199 190 174 226 233 262 238 192 166 155 162 198 76 110 200 97 140 250 291 323 333 289 212 191 184 156 104 48 275 267 217 190 236 253 148 141 201 239 295 296 275 237 220 251 329 342 37 21 8 357 345 352 359 358 357 356 353
27 71 28 83 138 154 159 157 147 76 98 155 193 159 231 184 161 168 168 175 209 203 197 184 160 173 191 193 222 202 167 208 192 198 245 231 225 246 216 176 163 154 132 61 124 216 151 165 223 287 314 257 245 229 185 176 167 155 178 203 194 167 134 291 281 276 118 185 191 219 277 273 255 215 236 0 68 95 34 13 352 351 2 5 360 357 354 351
57 63 35 137 146 151 150 139 19 43 111 154 179 143 167 157 138 165 179 188 229 222 189 167 164 173 172 178 200 182 171 214 199 203 232 216 209 214 191 178 173 158 137 141 235 222 152 125 232 269 254 244 262 292 150 167 154 144 178 191 158 137 135 159 237 270 298 222 181 127 277 277 271 174 133 100 106 67 32 15 5 5 5 1 356 354 352 351
72 85 129 154 156 152 140 93 346 7 56 162 158 136 152 154 133 153 189 208 211 201 215 201 187 190 196 188 170 173 193 206 192 197 221 233 229 212 171 172 174 158 135 166 245 201 141 102 301 279 282 294 323 358 36 94 114 134 219 166 151 160 156 168 188 190 245 260 243 89 280 278 270 182 157 82 34 25 26 19 14 7 358 354 352 349 350 352
102 81 125 163 171 167 156 184 185 248 281 293 41 101 168 197 183 170 198 220 203 177 166 205 206 202 199 141 131 184 207 210 211 212 213 222 224 196 162 172 177 172 169 197 169 153 188 200 94 321 320 330 344 355 351 343 35 189 243 239 192 165 121 128 166 110 298 262 209 168 263 271 245 221 280 13 16 8 10 10 6 358 351 348 347 346 349 355
136 85 111 173 187 194 212 207 169 165 194 142 25 220 187 232 215 200 209 220 205 190 172 208 191 153 134 103 92 237 230 219 243 266 284 244 242 192 163 179 190 195 201 189 153 148 191 215 147 179 279 290 296 303 309 305 280 232 250 252 224 181 158 181 281 129 245 261 187 171 245 267 279 291 315 359 16 1 355 356 352 348 346 345 344 347 351 355
168 159 88 181 201 210 235 240 171 141 156 157 287 242 182 171 233 211 209 216 209 197 180 170 158 126 90 127 156 267 251 219 225 301 278 244 261 262 174 189 197 190 173 161 158 142 110 255 205 199 208 224 245 252 250 23 300 286 282 269 251 219 190 165 114 197 235 273 276 252 253 270 284 298 329 353 359 350 344 345 343 342 345 346 345 345 347 349
202 202 185 155 211 223 240 239 202 159 163 175 178 199 185 192 321 216 211 224 211 196 193 194 178 173 178 176 185 241 239 201 211 249 243 230 244 307 207 191 186 182 164 156 167 135 84 285 242 215 223 238 254 264 287 349 285 276 281 279 268 233 176 172 211 227 226 325 272 263 269 283 287 308 348 349 341 339 336 337 339 342 345 343 339 338 342 347
213 214 203 172 200 211 204 230 210 167 148 171 175 164 173 187 221 204 206 221 208 197 198 236 229 208 191 173 162 189 205 173 233 235 237 235 228 25 10 218 191 189 169 163 182 142 127 259 244 208 242 256 261 271 276 271 264 265 270 275 276 258 193 200 234 238 214 231 256 269 290 295 296 324 351 341 331 326 326 334 341 344 342 338 335 340 344 346
213 210 197 189 216 212 180 210 191 160 158 165 177 199 178 188 220 225 183 126 255 226 198 217 248 222 197 180 159 173 200 197 257 259 219 195 208 171 258 259 198 186 162 145 193 152 143 253 243 195 273 268 251 258 264 258 265 272 263 258 262 264 237 220 241 245 224 238 255 274 290 287 296 347 341 330 331 328 330 339 342 340 336 334 336 342 344 343
231 224 191 187 218 208 164 171 151 146 175 190 217 230 189 186 216 233 181 166 192 220 183 213 251 216 187 190 180 203 213 188 215 258 181 164 224 196 206 215 158 125 107 136 185 179 161 254 257 103 314 285 255 253 263 233 238 262 271 267 259 263 260 240 242 248 238 253 262 273 280 277 313 353 334 331 337 339 339 339 336 332 330 332 339 341 341 340
233 240 224 189 203 176 158 159 136 132 176 210 214 230 207 204 208 198 207 210 202 181 180 204 223 151 151 192 201 230 238 217 225 258 206 201 240 221 216 200 152 136 162 180 179 155 165 264 354 61 349 292 312 24 322 277 257 264 279 286 271 247 252 243 216 214 226 260 279 292 288 282 322 336 332 334 339 339 335 332 329 326 327 335 340 338 338 338
233 239 236 209 229 207 177 145 111 133 219 221 201 205 221 235 206 170 200 245 221 212 215 208 189 120 128 196 215 240 250 246 260 276 262 253 253 242 235 202 166 154 163 167 160 159 153 163 45 66 317 276 302 339 318 316 315 291 281 285 264 239 259 319 301 257 248 251 276 292 283 294 319 331 333 335 337 333 329 327 323 319 323 336 339 337 338 337